STARLINK-33726

Satellite information

Favourite Embed

Satellite Type and Status

PAYLOADIN ORBIT

Key statistics

Satellite STARLINK-33726 at a glance.

Uptime

253

Days in orbit

Revolutions

≈ 15.3

Per day

Orbit

LEO

Low Earth Orbit

Inclination

53.2

Latest

Satellite identification and parameters

Extended collection of information and parameters for STARLINK-33726.

Object identification

Identified? True

Debris? False

Object name: STARLINK-33726

International designator: 2025-069E

Object number (NORAD): 63437

Object ID (CCSDS): 63437

Country: UNITED STATES OF AMERICA (US)

Current information (Y/N): Y

RCS size: LARGE

Orbital parameters

Period: 94.104 minutes

Inclination: 53.1585 deg

SMA: 6853.288 km

Apoapsis: 476.059 km

Periapsis: 474.248 km

RAAN: 190.0137 deg

Eccentricy: 0.0001321

Argument of periapsis: 78.3168 deg

Mean anomaly: 281.7981 deg

Mean motion: 15.30221359 rev/day

Mean motion (dot): 0.00028235 rev/day2

B* drag term: 0.00096119 1/REarth

Two-line elements (TLE)

Creation date: Dec. 12, 2025, 7:26 a.m.

Reference frame: TEME

Reference center: EARTH

Epoch: Dec. 11, 2025, 11:22 p.m. UTC

TLE line 0: 0 STARLINK-33726

TLE line 1: 1 63437U 25069E 25345.97429663 .00028235 00000-0 96119-3 0 9999

TLE line 2: 2 63437 53.1585 190.0137 0001321 78.3168 281.7981 15.30221359 39923

Live tracking on map

Real-time ground track for satellite STARLINK-33726.

In-orbit conjunctions

There are no conjunctions computed for STARLINK-33726, at the moment. Check back to stay up to date, as we update our databases every day.

Go to all conjunctions

Associated space launch

A batch of 27 satellites for the Starlink mega-constellation - SpaceX's project for space-based Internet communication system.

STARLINK-33726 was lifted into orbit during the mission ‘Falcon 9 Block 5 | Starlink Group 11-13’, on board a Falcon 9 space rocket.

The launch took place on April 4, 2025, 1:02 a.m. from Space Launch Complex 4E.

For more information about the launch, click the button.

Launch to space Falcon 9 Block 5 | Starlink Group 11-13
Falcon 9 Block 5 | Starlink Group 11-13

Agency: SpaceX

Status: Launch Successful

Launch date: April 4, 2025, 1:02 a.m. UTC

Rocket: Falcon 9

Launch pad: Space Launch Complex 4E

Location: Vandenberg SFB, CA, USA

...

Latest news about this satellite

News about space launch
Launch Roundup: Falcon 9 to fly five missions during busy week

Five Falcon 9 missions are scheduled to launch this week, including the first-ever crewed mission… The post Launch Roundup: Falcon 9 to fly five missions during busy week appeared first on NASASpaceFlight.com.

News about space launch
Live coverage: SpaceX to launch 27 Starlink satellites on Falcon 9 rocket from Vandenberg

This will be the 12th launch of the year from Vandenberg Space Force Base. Liftoff from Space Launch Complex 4 East is set for 4:39 p.m. PDT (7:39 p.m. EDT, 2339 UTC).

News about space launch
Launch Roundup: Alpha, Spectrum, Electron, and Falcon 9 set to fly

The week ahead includes four launches scheduled for Wednesday and the third Electron rocket to… The post Launch Roundup: Alpha, Spectrum, Electron, and Falcon 9 set to fly appeared first on NASASpaceFlight.com.


Newsletter sign-up

Weekly statistics, charts and insights to help you stay on top of the space industry.